Location: ?ejkovice
(49.0137°N, 14.3821°E)
Time: 17:57:20
(UTC+00:00)

Cosmos 968 Rocket - Pass Details

Date: 08 August 2024
Orbit: 738 x 767 km, 74.0° (Epoch: 11 September)

Event Time Altitude Azimuth Distance (km) Brightness Sun altitude
Rises 21:22:29 0° 326° (NNW) 3,226 8.3 -21.1°
Reaches altitude 10° 21:25:16 10° 313° (NW) 2,290 7.0 -21.3°
Maximum altitude 21:29:18 23° 262° (W) 1,547 5.2 -21.6°
Enters shadow 21:31:48 16° 224° (SW) 1,858 5.3 -21.8°
